Simultaneous Nadir Overpasses (SNOs) Predictions

Prediction of SNOs between METOP-B and NOAA-19 Satellite Orbit:

Table of predicted SNOs for the next 14.0 days since TLE Epoch: 2/14/2014
Index Date (METOP-B) Time (METOP-B) Lat,Lon (METOP-B) SZA (METOP-B ) Date (NOAA-19) Time (NOAA-19) Lat,Lon (NOAA-19) SZA (NOAA-19 ) Distance(km) Time Diff (sec)
1 02/21/2014 10:17:00 -74.07,-159.04 95.36 02/21/2014 10:15:49 -74.12,-160.67 95.22 50.14 71
2 02/21/2014 11:07:47 73.74, 7.51 84.34 02/21/2014 11:06:45 73.74, 7.52 84.35 0.44 62
3 02/21/2014 11:58:28 -73.75, 174.85 95.67 02/21/2014 11:57:45 -73.74, 174.78 95.67 2.43 43
4 02/21/2014 12:49:09 73.72, -17.89 84.30 02/21/2014 12:48:48 73.69, -17.88 84.28 2.51 21
5 02/21/2014 13:39:51 -73.67, 149.34 95.76 02/21/2014 13:39:48 -73.69, 149.38 95.75 2.25 3
6
